Biloxi, MS

5:04 AM CST on January 18, 2018 (GMT -0600)
Keesler Air Force Base

Weather History for KBIX - August, 2013

Change the Weather History Date:

Friday, August 2, 2013

  Actual Average Record
Temperature  
Mean Temperature 82 °F -  
Max Temperature 90 °F 89 °F 98 °F (2010)
Min Temperature 73 °F 74 °F 70 °F (1992)
Cooling Degree Days 16    
Growing Degree Days 32 (Base 50)    
Moisture  
Dew Point 74 °F    
Average Humidity 78    
Maximum Humidity 94    
Minimum Humidity 62    
Precipitation  
Precipitation 0.00 in - - ()
Sea Level Pressure  
Sea Level Pressure 29.98 in    
Wind  
Wind Speed 3 mph (SE)    
Max Wind Speed 9 mph    
Max Gust Speed -    
Visibility 8 miles    
Events Fog    
Averages and records for this station are not official NWS values.
T = Trace of Precipitation, MM = Missing Value Source: NWS Daily Summary

Daily Weather History Graph

Daily Weather History Graph

Search for Another Location

Airport or City:

Trip Planner

Search our weather history database for the weather conditions in past years. The results will help you decide how hot, cold, wet, or windy it might be!

Date:

Astronomy

Aug. 02, 2013 Rise Set
Actual Time 6:14 AM CDT 7:48 PM CDT
Civil Twilight 5:48 AM CDT 8:14 PM CDT
Nautical Twilight 5:17 AM CDT 8:45 PM CDT
Astronomical Twilight 4:44 AM CDT 9:18 PM CDT
Moon 2:38 AM CDT (8/2) 4:43 PM CDT (8/2)
Length of Visible Light 14h 25m
Length of Day
13h 33m
Waning Crescent, 15% of the Moon is Illuminated
Aug 2
Waning Crescent
Aug 6
New
Aug 14
First Quarter
Aug 20
Full
Aug 28
Last Quarter

Hourly Weather History & Observations

Time (CDT) Temp. Heat Index Dew Point Humidity Pressure Visibility Wind Dir Wind Speed Gust Speed Precip Events Conditions
12:58 AM 76.6 °F - 72.3 °F 86% 29.96 in 0.2 mi Calm Calm - N/A   Haze
1:58 AM 75.4 °F - 71.8 °F 89% 29.94 in 0.2 mi NE 4.6 mph - N/A Fog Fog
2:58 AM 75.9 °F - 72.0 °F 87% 29.94 in 0.2 mi Calm Calm - N/A Fog Fog
3:58 AM 75.2 °F - 72.1 °F 90% 29.95 in 0.2 mi Calm Calm - N/A Fog Fog
4:58 AM 74.5 °F - 72.0 °F 92% 29.96 in 0.2 mi NNE 5.8 mph - N/A Fog Fog
5:48 AM 73.4 °F - 71.6 °F 94% 29.96 in 1.5 mi Calm Calm - N/A   Clear
5:53 AM 73.4 °F - 71.6 °F 94% 29.96 in 10.0 mi Calm Calm - N/A   Clear
5:58 AM 74.3 °F - 72.0 °F 92% 29.98 in 10.0 mi Variable 2.3 mph - N/A   Clear
6:58 AM 75.6 °F - 72.3 °F 90% 29.98 in 10.0 mi Variable 1.2 mph - N/A   Clear
7:58 AM 78.3 °F - 73.4 °F 85% 29.99 in 10.0 mi NE 5.8 mph - N/A   Clear
8:58 AM 82.2 °F 88.3 °F 74.1 °F 76% 30.00 in 10.0 mi NNE 6.9 mph - N/A   Clear
9:55 AM 82.2 °F 88.3 °F 74.1 °F 76% 30.00 in 10.0 mi NNE 6.9 mph - N/A   Clear
10:58 AM 87.4 °F 97.7 °F 75.6 °F 68% 30.02 in 10.0 mi NNE 4.6 mph - N/A   Clear
11:58 AM 89.2 °F 99.0 °F 74.5 °F 62% 30.01 in 10.0 mi ENE 3.5 mph - N/A   Clear
12:58 PM 90.1 °F 103.7 °F 77.5 °F 66% 30.00 in 10.0 mi ESE 3.5 mph - N/A   Scattered Clouds
1:58 PM 89.8 °F 102.7 °F 77.2 °F 66% 30.00 in 10.0 mi South 8.1 mph - N/A   Scattered Clouds
2:58 PM 89.6 °F 103.4 °F 77.7 °F 68% 29.99 in 10.0 mi South 9.2 mph - N/A   Partly Cloudy
3:58 PM 88.9 °F 100.3 °F 76.1 °F 66% 29.97 in 10.0 mi SSE 6.9 mph - N/A   Clear
4:58 PM 88.5 °F 98.8 °F 75.4 °F 65% 29.97 in 10.0 mi SSE 6.9 mph - N/A   Clear
5:58 PM 87.6 °F 97.6 °F 75.4 °F 67% 29.97 in 10.0 mi SSW 6.9 mph - N/A   Clear
6:58 PM 85.8 °F 95.5 °F 75.9 °F 72% 29.98 in 10.0 mi SSW 6.9 mph - N/A   Clear
7:58 PM 83.7 °F 91.7 °F 75.6 °F 76% 29.99 in 10.0 mi SSW 6.9 mph - N/A   Clear
8:58 PM 84.0 °F 92.2 °F 75.2 °F 75% 30.00 in 10.0 mi SW 2.3 mph - N/A   Clear
9:58 PM 82.6 °F 90.2 °F 75.7 °F 80% 30.01 in 10.0 mi Calm Calm - N/A   Clear
10:58 PM 84.0 °F 91.9 °F 74.8 °F 74% 30.03 in 10.0 mi South 3.5 mph - N/A   Clear
11:58 PM 81.1 °F 87.0 °F 74.8 °F 81% 30.03 in 10.0 mi South 3.5 mph - N/A   Clear